星链-1449 (STARLINK-1449 )

导读 | 豆包AI

STARLINK-1449是美国SpaceX星链星座的卫星,于2020年6月4日发射入轨,属于星链低轨互联网星座组网卫星。它旨在为全球提供高速低延迟卫星互联网服务,尤其覆盖地面通信难以抵达的偏远区域,该星发射后加入星链星座,推动了星座组网进程,拓展了全球卫星通信覆盖能力。

Basic Information
目录编号:
45666
目录名称:
STARLINK-1449
国际标识:
2020-035K
轨道中心:
EARTH
卫星名称:
星链-1449
卫星全名:
星链-1449 (STARLINK-1449 )
卫星状态:
已陨落 最后检测时间 2025-05-07
发射日期:
2020-06-04 UTC
国别 :
美国 (US)
星等 :
--
Orbit Information
数据来源 国际轨道数据
星历时间: 2025-05-08T03:13:57+0800
轨道信息已过期310天
半长轴: 6526.55km
偏心率: 0.0004788
轨道倾角: 53.011°
近地点辐角 318.362°
升交点赤经 255.692°
平近点角 164.963°
近地点: 145.29km
远地点: 151.54km
周期: 87.455分钟
每日圈数: 16.465589
Detailed Information
固有亮度:
5
最大亮度:
2.5
卫星平台:
Starlink V1.0
覆盖范围:
全球
运营商:
太空探索技术公司
运营商所在国:
美国
制造商(研发单位):
太空探索技术公司
制造商所在国:
美国
使用方式:
暂无
Satellite Introduction
星链(Starlink)计划是由太空探索技术公司(SpaceX)提出的一个巨型低轨卫星互联网星座项目,计划在2019年至2024年间在太空搭建由约1.2万颗卫星组成的“星链”网络,其中1584颗将部署在地球上空550千米处的近地轨道,并从2020年开始工作。该卫星仍在工作。